Flag for Kazakhstan Weather past 2 weeks in Aqtobe, Kazakhstan

Now
46 °F

Clear.


Feels Like: 45 °F
Forecast: 44 / 64 °F
Wind: 3 mph from West

Location: Aktjubinsk


UV Index: 3 (Moderate)

Visibility: N/A


Pressure: 30.09 "Hg

Humidity: 66%

Dew point: 36 °F

Location of AqtobeLocation

Historic Weather in Aqtobe

°F

Aqtobe temperature yesterday

Maximum temperature yesterday: 68 °F (at 4:30 PM)
Minimum temperature yesterday: 37 °F (at 6:00 AM)
Average temperature yesterday: 53 °F

Past Weeks' High & Low Weather Summary

 TemperatureHumidityPressure
High70 °F (Apr 18, 3:00 PM)100% (Apr 5, 11:00 PM)30.60 "Hg (Apr 5, 11:00 PM)
Low19 °F (Apr 12, 4:00 AM)20% (Apr 16, 4:30 PM)29.56 "Hg (Apr 6, 5:30 AM)
Average42 °F60%30.15 "Hg
* Reported Apr 5 11:00 PM — Apr 20 11:00 PM, Aqtobe, Weather by CustomWeather, © 2014

Note: Actual official high and low records may vary slightly from our data, if they occured in-between our weather recording intervals... More about our weather records

Advertising

Historic Weather Conditions — Data for Previous 24 hours

 ConditionsComfort  
Time TempWeatherWind HumidityBarometerVisibility
11:00 PM
Apr 20
46 °FClear.3 mph66%30.09 "Hg10 mi
10:30 PM48 °FClear.3 mph58%30.09 "Hg10 mi
10:00 PM52 °FClear.1 mph50%30.09 "Hg10 mi
9:30 PM57 °FClear.1 mph39%30.09 "Hg10 mi
9:00 PM54 °FClear.1 mph47%30.09 "Hg10 mi
8:30 PM59 °FClear.3 mph34%30.09 "Hg10 mi
8:00 PM63 °FSunny.3 mph30%30.09 "Hg10 mi
7:30 PM64 °FSunny.6 mph28%30.09 "Hg10 mi
7:00 PM66 °FSunny.3 mph26%30.09 "Hg10 mi
6:30 PM66 °FSunny.6 mph26%30.09 "Hg10 mi
6:00 PM66 °FSunny.6 mph26%30.09 "Hg10 mi
5:30 PM66 °FSunny.6 mph24%30.12 "Hg10 mi
5:00 PM66 °FSunny.6 mph26%30.12 "Hg10 mi
4:30 PM68 °FPassing clouds.3 mph26%30.12 "HgN/A
4:00 PM66 °FSunny.1 mph26%30.12 "Hg10 mi
3:30 PM66 °FSunny.1 mph26%30.12 "Hg10 mi
3:00 PM66 °FPassing clouds.3 mph28%30.15 "HgN/A
2:30 PM66 °FPassing clouds.6 mph28%30.15 "HgN/A
2:00 PM66 °FPassing clouds.6 mph30%30.15 "HgN/A
1:30 PM64 °FSunny.1 mph32%30.15 "Hg10 mi
1:00 PM63 °FPassing clouds.6 mph34%30.15 "HgN/A
12:30 PM63 °FPassing clouds.6 mph37%30.15 "HgN/A
12:00 PM61 °FPassing clouds.6 mph39%30.15 "HgN/A
11:30 AM59 °FSunny.3 mph45%30.15 "Hg10 mi
11:00 AM55 °FClear.3 mph51%30.18 "HgN/A
10:30 AM54 °FClear.3 mph54%30.18 "HgN/A
10:00 AM52 °FClear.3 mph54%30.18 "HgN/A
9:30 AM48 °FClear.6 mph62%30.18 "HgN/A
9:00 AM46 °FClear.3 mph62%30.18 "HgN/A
8:30 AM45 °FClear.6 mph61%30.18 "HgN/A
8:00 AM43 °FClear.3 mph66%30.18 "HgN/A
7:30 AM41 °FClear.1 mph70%30.18 "HgN/A
7:00 AM37 °FSunny.1 mph75%30.18 "Hg10 mi
6:30 AM37 °FPassing clouds.3 mph75%30.18 "HgN/A
6:00 AM37 °FClear.No wind70%30.15 "Hg10 mi
5:30 AM41 °FClear.3 mph66%30.15 "Hg10 mi
5:00 AM41 °FClear.3 mph70%30.15 "Hg10 mi
4:30 AM41 °FClear.6 mph70%30.15 "Hg10 mi
4:00 AM41 °FClear.3 mph70%30.15 "Hg10 mi
3:30 AM41 °FClear.6 mph70%30.15 "Hg10 mi
3:00 AM39 °FClear.8 mph81%30.15 "Hg10 mi
2:30 AM41 °FClear.10 mph76%30.15 "Hg10 mi
2:00 AM43 °FClear.3 mph66%30.15 "Hg10 mi
1:30 AM45 °FClear.3 mph61%30.15 "Hg10 mi
1:00 AM46 °FClear.3 mph62%30.15 "Hg10 mi
12:30 AM45 °FClear.3 mph66%30.15 "Hg10 mi
12:00 AM46 °FClear.6 mph62%30.15 "Hg10 mi
Weather by CustomWeather, © 2014

See weather overview